Starlink 11144

operational
NORAD ID: 59955 Int'l Des: 2024-107 Owner: SPXS Country: US Constellation: starlink
LEOCIRCULAR

Über Starlink 11144

Beschreibung wird geladen...

Live-Position

3D-Globus wird geladen...

Nächste Überflüge

Höhenverlauf

Altitude vs Time

uPlot chart will show altitude changes over time

Zweizeiliger Elementsatz

1 59955U 24107L 25260.60452277 -.00001922 00000-0 -11003-4 0 9990
2 59955 53.1594 24.3208 0001049 87.5399 272.5739 15.69716933 75025
Epoch: 17. Sept. 2025 • Age: 29 hours

Aktueller Status

Höhe 366.6 km
Geschwindigkeit 7.69 km/s
Subsatellitenpunkt -22.86°S, 70.83°E
Startdatum 5. Juni 2024
Alter 1.2 years
Typ internet

Technische Details

Klassifizierung Payload
Masse 960.00 kg
Trockenmasse 910.00 kg
Gesamtmasse 960.00 kg
Länge 0.30 m
Durchmesser 4.10 m
Spannweite 29.00 m
Form Box + pan
Hersteller SPXS
Bus-Typ Starlink V2MD
Phasenstatus In Orbit
Besitzer/Staat SPXS/US

Große Konstellationen

Loading constellations...